Satellite: NOAA-11 Catalog number: 19531 Epoch time: 13171.34757206 Element set: 403 Inclination: 098.7110 deg RA of node: 254.3062 deg Eccentricity: 0.0010320 Arg of perigee: 249.1694 deg Mean anomaly: 157.0016 deg Mean motion: 14.15018335 rev/day Decay rate: 3.0e-07 rev/day^2 Epoch rev: 27657 Checksum: 256
Satellite: NOAA-12 Catalog number: 21263 Epoch time: 13171.28307737 Element set: 868 Inclination: 098.6965 deg RA of node: 196.6453 deg Eccentricity: 0.0013579 Arg of perigee: 206.1334 deg Mean anomaly: 283.0682 deg Mean motion: 14.25571435 rev/day Decay rate: 4.4e-07 rev/day^2 Epoch rev: 14899 Checksum: 326
Satellite: MET-3/5 Catalog number: 21655 Epoch time: 13169.16157882 Element set: 717 Inclination: 082.5568 deg RA of node: 253.6037 deg Eccentricity: 0.0014582 Arg of perigee: 126.0570 deg Mean anomaly: 234.1905 deg Mean motion: 13.17049215 rev/day Decay rate: -1.50e-06 rev/day^2 Epoch rev: 5006 Checksum: 286
Satellite: MET-2/21 Catalog number: 22782 Epoch time: 13168.13603891 Element set: 767 Inclination: 082.5506 deg RA of node: 102.9636 deg Eccentricity: 0.0021962 Arg of perigee: 205.9104 deg Mean anomaly: 285.0152 deg Mean motion: 13.83708524 rev/day Decay rate: 6.1e-07 rev/day^2 Epoch rev: 99963 Checksum: 308
Satellite: OKEAN-4 Catalog number: 23317 Epoch time: 13168.47665672 Element set: 247 Inclination: 082.5390 deg RA of node: 049.5265 deg Eccentricity: 0.0020320 Arg of perigee: 221.4975 deg Mean anomaly: 265.9917 deg Mean motion: 14.84493116 rev/day Decay rate: 4.71e-06 rev/day^2 Epoch rev: 898 Checksum: 317
Satellite: NOAA-14 Catalog number: 23455 Epoch time: 13171.32354830 Element set: 353 Inclination: 098.8031 deg RA of node: 255.7149 deg Eccentricity: 0.0009005 Arg of perigee: 355.5457 deg Mean anomaly: 045.9996 deg Mean motion: 14.13911117 rev/day Decay rate: -5.4e-07 rev/day^2 Epoch rev: 95281 Checksum: 303
Satellite: NOAA-15 Catalog number: 25338 Epoch time: 13182.45755652 Element set: 773 Inclination: 098.7260 deg RA of node: 172.5809 deg Eccentricity: 0.0011168 Arg of perigee: 085.3324 deg Mean anomaly: 274.9656 deg Mean motion: 14.25235658 rev/day Decay rate: 1.94e-06 rev/day^2 Epoch rev: 78688 Checksum: 345
Satellite: RESURS Catalog number: 25394 Epoch time: 13168.44684343 Element set: 401 Inclination: 098.3610 deg RA of node: 144.2735 deg Eccentricity: 0.0000715 Arg of perigee: 185.7737 deg Mean anomaly: 320.4466 deg Mean motion: 14.24332380 rev/day Decay rate: -4.1e-07 rev/day^2 Epoch rev: 77639 Checksum: 290
Satellite: FENGYUN1 Catalog number: 25730 Epoch time: 13168.81580502 Element set: 897 Inclination: 098.8770 deg RA of node: 128.3194 deg Eccentricity: 0.0026906 Arg of perigee: 047.7624 deg Mean anomaly: 008.7318 deg Mean motion: 14.10545200 rev/day Decay rate: 2.10e-06 rev/day^2 Epoch rev: 72613 Checksum: 290
Satellite: OKEAN-0 Catalog number: 25860 Epoch time: 13168.46827623 Element set: 973 Inclination: 097.9898 deg RA of node: 130.9137 deg Eccentricity: 0.0002076 Arg of perigee: 118.8718 deg Mean anomaly: 028.4480 deg Mean motion: 14.74617033 rev/day Decay rate: 2.10e-06 rev/day^2 Epoch rev: 74839 Checksum: 326
Satellite: NOAA-16 Catalog number: 26536 Epoch time: 13182.48915883 Element set: 252 Inclination: 099.0428 deg RA of node: 235.3927 deg Eccentricity: 0.0011014 Arg of perigee: 094.7872 deg Mean anomaly: 265.5160 deg Mean motion: 14.12891718 rev/day Decay rate: 2.46e-06 rev/day^2 Epoch rev: 65859 Checksum: 328
Satellite: NOAA-17 Catalog number: 27453 Epoch time: 13182.45459615 Element set: 169 Inclination: 098.3150 deg RA of node: 195.7778 deg Eccentricity: 0.0012027 Arg of perigee: 121.6350 deg Mean anomaly: 238.6581 deg Mean motion: 14.24598760 rev/day Decay rate: 1.05e-06 rev/day^2 Epoch rev: 57275 Checksum: 320
Satellite: NOAA-18 Catalog number: 28654 Epoch time: 13182.45112366 Element set: 655 Inclination: 099.0989 deg RA of node: 150.8656 deg Eccentricity: 0.0014069 Arg of perigee: 167.2719 deg Mean anomaly: 192.9298 deg Mean motion: 14.11831767 rev/day Decay rate: 1.59e-06 rev/day^2 Epoch rev: 41807 Checksum: 345
Satellite: NOAA-19 Catalog number: 33591 Epoch time: 13182.47342801 Element set: 838 Inclination: 098.9002 deg RA of node: 124.4158 deg Eccentricity: 0.0014671 Arg of perigee: 030.3280 deg Mean anomaly: 329.9233 deg Mean motion: 14.11521257 rev/day Decay rate: 2.94e-06 rev/day^2 Epoch rev: 22651 Checksum: 283
/EX SB KEPS @ AMSAT $ORB13171.M Orbital Elements 13171.MISC
HR AMSAT ORBITAL ELEMENTS FOR MANNED AND MISCELLANEOUS SATELLITES FROM WA5QGD FORT WORTH,TX June 20, 2013 BID: ORB13171.M TO ALL RADIO AMATEURS BT
Satellite: HUBBLE Catalog number: 20580 Epoch time: 13167.74008509 Element set: 263 Inclination: 028.4696 deg RA of node: 275.7628 deg Eccentricity: 0.0003325 Arg of perigee: 350.3355 deg Mean anomaly: 136.2094 deg Mean motion: 15.03692199 rev/day Decay rate: 8.91e-06 rev/day^2 Epoch rev: 6963 Checksum: 307
Satellite: ISS Catalog number: 25544 Epoch time: 13171.97590808 Element set: 37 Inclination: 051.6475 deg RA of node: 089.5575 deg Eccentricity: 0.0008736 Arg of perigee: 082.0390 deg Mean anomaly: 278.2104 deg Mean motion: 15.50280351 rev/day Decay rate: -2.0e-08 rev/day^2 Epoch rev: 23939 Checksum: 296
Satellite: CO-58 Catalog number: 28895 Epoch time: 13168.15017974 Element set: 502 Inclination: 097.8702 deg RA of node: 023.4758 deg Eccentricity: 0.0019020 Arg of perigee: 083.7938 deg Mean anomaly: 276.5429 deg Mean motion: 14.61130523 rev/day Decay rate: 3.27e-06 rev/day^2 Epoch rev: 40693 Checksum: 322
Satellite: FALCON Catalog number: 30776 Epoch time: 13168.48643999 Element set: 637 Inclination: 035.4295 deg RA of node: 200.3843 deg Eccentricity: 0.0001882 Arg of perigee: 280.0912 deg Mean anomaly: 224.6988 deg Mean motion: 15.10695271 rev/day Decay rate: 2.468e-05 rev/day^2 Epoch rev: 34546 Checksum: 325
Satellite: MAST Catalog number: 31126 Epoch time: 13168.50597749 Element set: 781 Inclination: 097.8806 deg RA of node: 164.4086 deg Eccentricity: 0.0094169 Arg of perigee: 052.4892 deg Mean anomaly: 092.5976 deg Mean motion: 14.54584671 rev/day Decay rate: 3.57e-06 rev/day^2 Epoch rev: 32736 Checksum: 348
Satellite: CAPE1 Catalog number: 31130 Epoch time: 13168.45948774 Element set: 789 Inclination: 097.8976 deg RA of node: 160.7173 deg Eccentricity: 0.0101896 Arg of perigee: 068.0705 deg Mean anomaly: 293.1287 deg Mean motion: 14.53500738 rev/day Decay rate: 5.15e-06 rev/day^2 Epoch rev: 32681 Checksum: 330
Satellite: COMPASS Catalog number: 32787 Epoch time: 13169.14754759 Element set: 652 Inclination: 097.7527 deg RA of node: 227.6865 deg Eccentricity: 0.0013112 Arg of perigee: 301.7244 deg Mean anomaly: 058.2693 deg Mean motion: 14.85533976 rev/day Decay rate: 1.231e-05 rev/day^2 Epoch rev: 27810 Checksum: 321
Satellite: AAUSAT2 Catalog number: 32788 Epoch time: 13169.15588945 Element set: 638 Inclination: 097.7537 deg RA of node: 228.3239 deg Eccentricity: 0.0012652 Arg of perigee: 301.0763 deg Mean anomaly: 058.9211 deg Mean motion: 14.85998346 rev/day Decay rate: 1.294e-05 rev/day^2 Epoch rev: 27814 Checksum: 344
Satellite: DO-64 Catalog number: 32789 Epoch time: 13172.06568596 Element set: 667 Inclination: 097.7668 deg RA of node: 234.9509 deg Eccentricity: 0.0012121 Arg of perigee: 284.2063 deg Mean anomaly: 075.8312 deg Mean motion: 14.88647801 rev/day Decay rate: 4.183e-05 rev/day^2 Epoch rev: 27870 Checksum: 346
Satellite: CO-66 Catalog number: 32791 Epoch time: 13169.12305263 Element set: 637 Inclination: 097.7530 deg RA of node: 227.0244 deg Eccentricity: 0.0013638 Arg of perigee: 303.4388 deg Mean anomaly: 114.5685 deg Mean motion: 14.84666771 rev/day Decay rate: 9.97e-06 rev/day^2 Epoch rev: 27801 Checksum: 327
Satellite: RS-30 Catalog number: 32953 Epoch time: 13169.26791438 Element set: 956 Inclination: 082.5028 deg RA of node: 067.5219 deg Eccentricity: 0.0017467 Arg of perigee: 229.3823 deg Mean anomaly: 130.5745 deg Mean motion: 12.43034511 rev/day Decay rate: 1.0e-07 rev/day^2 Epoch rev: 23004 Checksum: 284
Satellite: METEOR-M Catalog number: 35865 Epoch time: 13182.44039413 Element set: 552 Inclination: 098.6027 deg RA of node: 234.5158 deg Eccentricity: 0.0002945 Arg of perigee: 040.7477 deg Mean anomaly: 319.4530 deg Mean motion: 14.21889044 rev/day Decay rate: 3.7e-07 rev/day^2 Epoch rev: 19649 Checksum: 307
Satellite: RS-38 Catalog number: 35869 Epoch time: 13169.17381593 Element set: 511 Inclination: 098.5952 deg RA of node: 221.4878 deg Eccentricity: 0.0005536 Arg of perigee: 071.6918 deg Mean anomaly: 288.4860 deg Mean motion: 14.22132880 rev/day Decay rate: 1.8e-07 rev/day^2 Epoch rev: 19463 Checksum: 337
Satellite: JUGNU Catalog number: 37839 Epoch time: 13167.81638418 Element set: 408 Inclination: 019.9619 deg RA of node: 309.0345 deg Eccentricity: 0.0019086 Arg of perigee: 279.9294 deg Mean anomaly: 203.2144 deg Mean motion: 14.12161098 rev/day Decay rate: 3.38e-06 rev/day^2 Epoch rev: 8684 Checksum: 322
Satellite: SRMSAT Catalog number: 37841 Epoch time: 13168.79708756 Element set: 411 Inclination: 019.9725 deg RA of node: 315.1596 deg Eccentricity: 0.0011757 Arg of perigee: 244.2206 deg Mean anomaly: 255.9267 deg Mean motion: 14.10230216 rev/day Decay rate: 3.26e-06 rev/day^2 Epoch rev: 8686 Checksum: 305
Satellite: RAX-2 Catalog number: 37853 Epoch time: 13169.19089973 Element set: 530 Inclination: 101.7140 deg RA of node: 023.2908 deg Eccentricity: 0.0235078 Arg of perigee: 024.6560 deg Mean anomaly: 084.7708 deg Mean motion: 14.83693133 rev/day Decay rate: 3.275e-05 rev/day^2 Epoch rev: 8859 Checksum: 319
